Tracking 29892 objects as of 21-Nov-2024
HD Live streaming from Space Station
objects crossing your sky now

STARLINK-30551

Track STARLINK-30551 now!
10-day predictions
STARLINK-30551 is classified as:


NORAD ID: 58083
Int'l Code: 2023-160J
Perigee: 564.7 km
Apogee: 567.6 km
Inclination: 43.0 °
Period: 95.8 minutes
Semi major axis: 6937 km
RCS: Unknown
Launch date: October 18, 2023
Source: United States (US)
Launch site: AIR FORCE EASTERN TEST RANGE (AFETR)
Your satellite tracking list
Your tracking list is empty




NASA's NSSDC Master Catalog

Two Line Element Set (TLE):
1 58083U 23160J   24325.87721102  .00002119  00000-0  17177-3 0  9999
2 58083  43.0052 134.8692 0002076 276.9705  83.0901 15.02558218 61649
Source of the keplerian elements: AFSPC